Location: Stockholm
(59.3333°N, 18.0500°E)
Time: 04:37:35
(UTC+02:00)

ISS - Pass Details

Date: 22 July 2021
Orbit: 419 x 421 km, 51.6° (Epoch: 03 August)

Event Time Altitude Azimuth Distance (km) Brightness Sun altitude
Rises 23:52:09 0° 263° (W) 2,374 0.2 -9.6°
Reaches altitude 10° 23:55:09 10° 234° (SW) 1,506 -1.2 -9.7°
Maximum altitude 23:56:45 13° 206° (SSW) 1,342 -1.6 -9.7°
Enters shadow 23:57:28 12° 192° (SSW) 1,376 -1.7 -9.7°
